• Em Portugal
  • Lista de países
  • Para 7 dias
  • Temperatura da água
  • Mapas de satélite
  • Mapa do tempo
  • Widgets de tempo
  • user-avatar
    Iniciar Sessão

    Previsão horária em Rarwino

    Hoje, 24 Outubro, Quarta-feira

    Tempo Temperatura Precipitação Vento Pressão Humidade
    00:00 +8°C° 0.1 mm 12 m/s 750 mmHg 66%
    01:00 +7°C° 0.1 mm 12 m/s 750 mmHg 63%
    02:00 +7°C° 0.1 mm 11 m/s 751 mmHg 62%
    03:00 +7°C° 0.1 mm 11 m/s 751 mmHg 62%
    04:00 +6°C° 0.1 mm 10 m/s 752 mmHg 61%
    05:00 +6°C° 0.1 mm 10 m/s 752 mmHg 60%
    06:00 +6°C° 0.1 mm 10 m/s 753 mmHg 59%
    07:00 +6°C° 0.1 mm 10 m/s 754 mmHg 58%
    08:00 +6°C° 0.1 mm 10 m/s 754 mmHg 55%
    09:00 +7°C° 0.1 mm 10 m/s 755 mmHg 53%
    10:00 +8°C° 0.1 mm 11 m/s 756 mmHg 50%
    11:00 +8°C° 0 mm 10 m/s 756 mmHg 49%
    12:00 +8°C° 0 mm 10 m/s 757 mmHg 48%
    13:00 +8°C° 0 mm 10 m/s 757 mmHg 46%
    14:00 +8°C° 0 mm 9 m/s 758 mmHg 49%
    15:00 +9°C° 0 mm 8 m/s 758 mmHg 52%
    16:00 +7°C° 0 mm 8 m/s 759 mmHg 55%
    17:00 +8°C° 0 mm 7 m/s 759 mmHg 57%
    18:00 +6°C° 0 mm 7 m/s 759 mmHg 60%
    19:00 +7°C° 0 mm 6 m/s 759 mmHg 63%
    20:00 +7°C° 0 mm 6 m/s 759 mmHg 65%
    21:00 +7°C° 0 mm 6 m/s 759 mmHg 68%
    22:00 +5°C° 0 mm 6 m/s 759 mmHg 70%
    23:00 +7°C° 0.2 mm 6 m/s 758 mmHg 75%

    Amanhã, 25 Outubro, Quinta-feira

    Tempo Temperatura Precipitação Vento Pressão Humidade
    00:00 +7°C° 0.2 mm 6 m/s 757 mmHg 79%
    01:00 +7°C° 0.2 mm 6 m/s 757 mmHg 83%
    02:00 +8°C° 1 mm 7 m/s 756 mmHg 85%
    03:00 +8°C° 1 mm 9 m/s 755 mmHg 88%
    04:00 +9°C° 1 mm 10 m/s 754 mmHg 90%
    05:00 +9°C° 0.5 mm 10 m/s 753 mmHg 89%
    06:00 +9°C° 0.5 mm 11 m/s 753 mmHg 88%
    07:00 +10°C° 0.5 mm 12 m/s 752 mmHg 87%
    08:00 +10°C° 0.2 mm 12 m/s 752 mmHg 84%
    09:00 +10°C° 0.2 mm 12 m/s 752 mmHg 82%
    10:00 +10°C° 0.2 mm 12 m/s 752 mmHg 79%
    11:00 +10°C° 0.1 mm 12 m/s 752 mmHg 76%
    12:00 +9°C° 0.1 mm 12 m/s 753 mmHg 73%
    13:00 +9°C° 0.1 mm 12 m/s 753 mmHg 70%
    14:00 +9°C° 0 mm 11 m/s 753 mmHg 70%
    15:00 +9°C° 0 mm 10 m/s 753 mmHg 70%
    16:00 +8°C° 0 mm 10 m/s 753 mmHg 70%
    17:00 +8°C° 0 mm 9 m/s 753 mmHg 71%
    18:00 +8°C° 0 mm 9 m/s 754 mmHg 72%
    19:00 +9°C° 0 mm 8 m/s 754 mmHg 73%
    20:00 +9°C° 0.1 mm 8 m/s 754 mmHg 74%
    21:00 +9°C° 0.1 mm 8 m/s 754 mmHg 75%
    22:00 +7°C° 0.1 mm 8 m/s 754 mmHg 76%
    23:00 +8°C° 0.1 mm 7 m/s 754 mmHg 76%

    Depois de amanhã, 26 Outubro, Sexta-feira

    Tempo Temperatura Precipitação Vento Pressão Humidade
    00:00 +8°C° 0.1 mm 7 m/s 754 mmHg 76%
    01:00 +8°C° 0.1 mm 7 m/s 754 mmHg 75%
    02:00 +8°C° 0.1 mm 7 m/s 754 mmHg 76%
    03:00 +8°C° 0.1 mm 7 m/s 754 mmHg 77%
    04:00 +8°C° 0.1 mm 7 m/s 753 mmHg 77%
    05:00 +8°C° 0 mm 7 m/s 753 mmHg 79%
    06:00 +7°C° 0 mm 6 m/s 753 mmHg 80%
    07:00 +7°C° 0 mm 6 m/s 753 mmHg 81%
    08:00 +8°C° 0.1 mm 6 m/s 752 mmHg 81%
    09:00 +8°C° 0.1 mm 6 m/s 752 mmHg 81%
    10:00 +8°C° 0.1 mm 5 m/s 751 mmHg 81%
    11:00 +9°C° 1.1 mm 6 m/s 750 mmHg 82%
    12:00 +9°C° 1.1 mm 8 m/s 750 mmHg 83%
    13:00 +10°C° 1.1 mm 9 m/s 749 mmHg 85%
    14:00 +10°C° 0.3 mm 9 m/s 748 mmHg 83%
    15:00 +10°C° 0.3 mm 9 m/s 748 mmHg 81%
    16:00 +10°C° 0.3 mm 9 m/s 747 mmHg 80%
    17:00 +8°C° 0.8 mm 9 m/s 747 mmHg 82%
    18:00 +9°C° 0.8 mm 8 m/s 747 mmHg 84%
    19:00 +8°C° 0.8 mm 7 m/s 747 mmHg 86%
    20:00 +8°C° 0.6 mm 7 m/s 747 mmHg 84%
    21:00 +7°C° 0.6 mm 6 m/s 747 mmHg 82%
    22:00 +7°C° 0.6 mm 6 m/s 747 mmHg 80%
    23:00 +7°C° 0.7 mm 6 m/s 747 mmHg 81%

    27 Outubro, Sábado

    Tempo Temperatura Precipitação Vento Pressão Humidade
    00:00 +5°C° 0.7 mm 7 m/s 748 mmHg 82%
    01:00 +5°C° 0.7 mm 8 m/s 748 mmHg 83%
    02:00 +5°C° 0.4 mm 8 m/s 748 mmHg 81%
    03:00 +5°C° 0.4 mm 8 m/s 749 mmHg 80%
    04:00 +5°C° 0.4 mm 8 m/s 750 mmHg 79%
    05:00 +4°C° 0.2 mm 7 m/s 750 mmHg 80%
    06:00 +4°C° 0.2 mm 6 m/s 751 mmHg 80%
    07:00 +4°C° 0.2 mm 6 m/s 752 mmHg 81%
    08:00 +5°C° 0 mm 5 m/s 753 mmHg 77%
    09:00 +6°C° 0 mm 5 m/s 753 mmHg 72%
    10:00 +6°C° 0 mm 4 m/s 754 mmHg 68%
    11:00 +7°C° 0 mm 4 m/s 754 mmHg 65%
    12:00 +7°C° 0 mm 4 m/s 755 mmHg 61%
    13:00 +8°C° 0 mm 3 m/s 755 mmHg 58%
    14:00 +8°C° 0 mm 3 m/s 755 mmHg 60%
    15:00 +8°C° 0 mm 2 m/s 756 mmHg 62%
    16:00 +8°C° 0 mm 1 m/s 756 mmHg 63%
    17:00 +8°C° 0 mm 1 m/s 756 mmHg 65%
    18:00 +6°C° 0 mm 2 m/s 757 mmHg 67%
    19:00 +5°C° 0 mm 2 m/s 757 mmHg 69%
    20:00 +5°C° 0 mm 2 m/s 758 mmHg 71%
    21:00 +5°C° 0 mm 2 m/s 758 mmHg 72%
    22:00 +5°C° 0 mm 2 m/s 759 mmHg 74%
    23:00 +5°C° 0 mm 2 m/s 759 mmHg 75%

    28 Outubro, Domingo

    Tempo Temperatura Precipitação Vento Pressão Humidade
    00:00 +5°C° 0 mm 2 m/s 759 mmHg 76%
    01:00 +5°C° 0 mm 2 m/s 759 mmHg 78%
    02:00 +4°C° 0.1 mm 3 m/s 759 mmHg 78%
    03:00 +4°C° 0.1 mm 3 m/s 759 mmHg 79%
    04:00 +3°C° 0.1 mm 3 m/s 760 mmHg 79%
    05:00 +4°C° 0.1 mm 3 m/s 760 mmHg 79%
    06:00 +4°C° 0.1 mm 4 m/s 760 mmHg 79%
    07:00 +4°C° 0.1 mm 4 m/s 761 mmHg 78%
    08:00 +4°C° 0.1 mm 4 m/s 761 mmHg 76%
    09:00 +5°C° 0.1 mm 4 m/s 761 mmHg 74%
    10:00 +5°C° 0.1 mm 5 m/s 762 mmHg 72%
    11:00 +5°C° 0 mm 5 m/s 762 mmHg 70%
    12:00 +6°C° 0 mm 5 m/s 762 mmHg 69%
    13:00 +6°C° 0 mm 5 m/s 762 mmHg 67%
    14:00 +6°C° 0.1 mm 4 m/s 762 mmHg 69%
    15:00 +6°C° 0.1 mm 4 m/s 763 mmHg 70%
    16:00 +6°C° 0.1 mm 4 m/s 763 mmHg 71%
    17:00 +5°C° 0.1 mm 4 m/s 763 mmHg 73%
    18:00 +5°C° 0.1 mm 5 m/s 763 mmHg 75%
    19:00 +5°C° 0.1 mm 5 m/s 764 mmHg 76%
    20:00 +5°C° 0.1 mm 5 m/s 764 mmHg 78%
    21:00 +3°C° 0.1 mm 5 m/s 764 mmHg 79%
    22:00 +3°C° 0.1 mm 5 m/s 764 mmHg 81%
    23:00 +3°C° 0.1 mm 5 m/s 764 mmHg 80%

    29 Outubro, Segunda-feira

    Tempo Temperatura Precipitação Vento Pressão Humidade
    00:00 +3°C° 0.1 mm 5 m/s 764 mmHg 80%
    01:00 +2°C° 0.1 mm 5 m/s 764 mmHg 80%
    02:00 +3°C° 0 mm 5 m/s 764 mmHg 78%
    03:00 +3°C° 0 mm 5 m/s 764 mmHg 76%
    04:00 +3°C° 0 mm 6 m/s 763 mmHg 74%
    05:00 +3°C° 0 mm 6 m/s 763 mmHg 73%
    06:00 +3°C° 0 mm 6 m/s 763 mmHg 73%
    07:00 +3°C° 0 mm 6 m/s 763 mmHg 73%
    08:00 +4°C° 0 mm 7 m/s 764 mmHg 70%
    09:00 +4°C° 0 mm 8 m/s 764 mmHg 67%
    10:00 +5°C° 0 mm 8 m/s 764 mmHg 65%
    11:00 +5°C° 0 mm 8 m/s 764 mmHg 62%
    12:00 +5°C° 0 mm 9 m/s 763 mmHg 60%
    13:00 +6°C° 0 mm 9 m/s 763 mmHg 57%
    14:00 +5°C° 0 mm 9 m/s 763 mmHg 57%
    15:00 +5°C° 0 mm 9 m/s 763 mmHg 57%
    16:00 +5°C° 0 mm 9 m/s 763 mmHg 57%
    17:00 +3°C° 0 mm 9 m/s 763 mmHg 56%
    18:00 +3°C° 0 mm 9 m/s 764 mmHg 55%
    19:00 +3°C° 0 mm 9 m/s 764 mmHg 53%
    20:00 +2°C° 0 mm 9 m/s 764 mmHg 52%
    21:00 +2°C° 0 mm 9 m/s 764 mmHg 51%
    22:00 +2°C° 0 mm 9 m/s 765 mmHg 50%
    23:00 +2°C° 0 mm 9 m/s 764 mmHg 50%
    Mostrar mais